全球卫星定位系统 GPS 51星 (NAVSTAR 51 (USA 166))

导读

NAVSTAR 51(USA 166)是美国于2003年1月29日发射的GPS全球定位系统卫星,属于美国第二代GPS改进型BLOCK IIR系列卫星,运行在约20200公里的中地球轨道,轨道倾角约55度,用于替代早期GPS卫星,维持GPS星座组网。它由美国太空军运营维护,可为全球绝大多数区域提供精准的定位、测速与授时服务,兼具军事和民用双重价值,为全球导航定位领域提供了关键基础设施支撑,截至2026年已在轨运行超23年。

基本信息
目录编号:
27663
目录名称:
NAVSTAR 51 (USA 166)
国际标识:
2003-005A
轨道中心:
EARTH
卫星名称:
GPS 51星
卫星全名:
全球卫星定位系统 GPS 51星 (NAVSTAR 51 (USA 166))
卫星状态:
在轨 (已飞行8535 天)
发射日期:
2003-01-29 UTC
国别 :
美国 (US)
星等 :
--
轨道信息
数据来源 国际轨道数据 AOE轨道数据
星历时间 2026-06-12T11:54:34+0800
14小时前
查看轨道信息
2026-06-10T23:00:00+0800
2天前
查看轨道信息
半长轴 26560.605km 26560.543km
偏心率 0.0147931 0.0147893
轨道倾角 54.883° 54.883°
近地点辐角 53.071° 53.061°
升交点赤经 215.169° 215.230°
平近点角 338.979° 308.566°
近地点 19789.554km 19789.594km
远地点 20575.382km 20575.218km
周期 717.987分钟 717.985分钟
每日圈数 2.005607 2.005614
详细信息
平衡模式:
三轴稳定
覆盖范围:
全球
运营商:
美国太空军
运营商所在国:
美国
制造商(研发单位):
洛克希德·马丁公司
制造商所在国:
美国
使用方式:
暂无
工作目标:
提供军用及民用全球定位与导航服务。
预期寿命:
10年
卫星简介
全球定位系统(英语:Global Positioning System,通常简称GPS),又称全球卫星定位系统,是美国国防部研制,美国太空军运营与维护的中地球轨道卫星导航系统。它可以为地球表面约98%的地区提供准确的定位、测速和高精度的标准时间。全球定位系统可满足位于全球地面任何一处或近地空间的军事用户连续且精确地确定三维位置、三维运动和时间的需求。该系统包括太空中的31颗GPS人造卫星.该卫星仍在工作。
2D轨道图
3D轨道图
轨道高度分析图
轨道倾角分析图
轨道综合分析图
查看轨道综合分析图